SES-9

Last updated on Fri Sep 11 2026 00:02:58 GMT+0000 (Coordinated Universal Time)

1 41380U 16013A 26253.61467597 .00000000 00000+0 00000+0 0 9998 2 41380 0.0152 162.9152 0001825 325.1504 191.1555 1.00269019 38295
UTC large
Height (km)
Speed (km/s)
/
Latitude / Longitude
Inclination (degrees)
Orbital Period (minutes)
Azimuth
Elevation
Range (km)
Doppler Factor

Next 0 passes for location: London (51.5072 / 0.1276)

No passes found over London.
SES-9